Location: Casilda
(33.0440°S, 61.1680°W)
Time: 13:28:14
(UTC-03:00)

ISS - Pass Details

Date: 17 June 2018
Orbit: 402 x 406 km, 51.6° (Epoch: 22 June)

Event Time Altitude Azimuth Distance (km) Brightness Sun altitude
Exits shadow 06:14:19 49° 98° (E) 536 -3.0 -22.8°
Drops below altitude 10° 06:17:04 10° 58° (ENE) 1,471 0.0 -22.2°
Sets 06:19:10 0° 53° (NE) 2,325 1.2 -21.8°
